Погода в Волчихе

Погода в Волчихе : погода сейчас, прогноз погоды и архив. Всё, что Вы хотите узнать о погоде в Волчихе!

Хотите узнать прогноз погоды в Волчихе? Тогда Вам сюда: Погода в Волчихе

Поиск расширенной информации на нашем сайте:

Полезная информация: Модифицированные штукатурные смеси.

Другие новости

Новости СМИ2

Главная страница сайта

Новости сайта

03.07.2017

Напоминаем, что на нашем специализированном сайте Метеоцентр.Азия вы можете получить высокодетализированные автоматические прогнозы погоды по пунктам России, СНГ и мира в авиационном формате (включающие направление и скорость ветра, видимость, явления погоды, количество и форму облачности, нижнюю и верхнюю границу облачности).

Рекомендуем: Грузоперевозки предложения услуг в подольске грузоперевозки подольск недорого.

Погода в Волчихе - сегодня

Время (UTC), дата Ветер
(°,м/с) 
Видим.   Явления Облачность Т
(°С)
Тd
(°С)
f(%) Тe
(°С)
Pmin
(гПа)
dP
(гПа)
Po
(мм)
O2
(г/м3)
Тmin Tmax R s Состояние
почвы
03 20.10.17 230 (ЮЗ) 6{11}  20000 м  {ливн. осадки}  10/10 480 м 
[Frnb]
+5.8 +4.3 90 +3  1014  2.9  741  292           
06 20.10.17 200 (Ю) 6-11{11}  20000 м  {ливн. осадки}  10/6 600 м средняя 
[Sc diur, vesp|Ac und]
+8.5 +3.7 72 +7  1014.5  0.8  742  289           
09 20.10.17 200 (Ю) 5{11}  20000 м    10/4 1000 м средняя 
[Sc|Ac und]
+9 +5.7 80 +8  1013.8  -0.7  742  288           
12 20.10.17 210 (ЮЗ) 5-10{10}  20000 м    10/0 средняя 
[Ac und]
+9 +6.7 85 +8  1013.8  742  288    +9.2     
15 20.10.17 230 (ЮЗ) 6-10{13}  10 км  слаб. ливневой дождь  10/10 700 м кучево-дожд. 
[Cb cap]
+9.7 +6.9 83 +8  1014.6  0.8  742  288           
18 20.10.17 230 (ЮЗ) 5{11}  20000 м  {ливн. осадки}  10/10 930 м 
[Sc]
+9.3 +6 80 +8  1015.1  0.5  743  288           
21 20.10.17 210 (ЮЗ) 20000 м    10/10 960 м 
[Sc]
+9 +6.2 83 +8  1014.6  -0.5  742  288           
00 21.10.17 210 (ЮЗ) 10 км  слаб. ливневой дождь  10/10 360 м кучево-дожд. 
[Cb cap]
+8 +7.4 96 +6  1013.9  -0.8  742  289  +8       
03 21.10.17 200 (Ю) 20000 м  {ливн. осадки}  10/10 240 м 
[Frnb]
+7.6 +5.7 88 +6  1013.7  -0.2  741  290  +7.6         
06 21.10.17 200 (Ю) 5{11}  20000 м  {ливн. осадки}  10/0 средняя 
[Ac und]
+7.8 +4.8 81 +6  1013.2  -0.5  741  289           
09 21.10.17 200 (Ю) 20000 м  {ливн. осадки}  10/10 900 м 
[Sc]
+8 +6.1 88 +8  1012.3  -0.8  740  289           
12 21.10.17 220 (ЮЗ) 20000 м  {ливн. осадки}  10/10 330 м 
[Frnb]
+8.4 +5.1 80 +8  1012.3  740  289    +8.9     
15 21.10.17 200 (Ю) 20000 м    10/0 средняя 
[Ac und]
+7.9 +5.9 87 +8  1012.4  0.1  740  289           
18 21.10.17 180 (Ю) 20000 м    10/0 средняя 
[Ac und]
+6.5 +5.1 91 +7  1011.3  -1.2  740  290           
21 21.10.17 190 (Ю) 20000 м    10/0 средняя 
[Ac und]
+6.1 +4.9 92 +6  1010.8  -0.5  739  291           
00 22.10.17 150 (ЮВ) 20000 м  в посл. час ливневой снег  10/4 480 м кучево-дожд., средняя 
[Cb cap|Ac As]
+6.3 +5.7 96 +6  1011  0.2  739  290  +5.6    0.6     
03 22.10.17 260 (З) 10 км  слаб. дождь  10/10 270 м 
[Ns]
+6.6 +6.2 97 +6  1012.5  1.4  740  290           
06 22.10.17 280 (З) 20000 м  {дождь}  10/10 660 м 
[Sc]
+7.6 +4.7 82 +6  1013.4  741  290           
09 22.10.17 260 (З) 20000 м    10/0 средняя 
[Ac und]
+8.6 +0.2 55 +7  1013.8  0.5  742  290           
12 22.10.17 260 (З) 3{11}  20000 м    10/0 средняя 
[Ac und]
+4.7 -3 57 +4  1017.4  3.1  744  295    +8.9  0.4     
15 22.10.17 290 (З) 20000 м    ясно 
+0.7 -2.3 80 -1  1021.6  3.8  747  300           
18 22.10.17 280 (З) 20000 м    ясно 
-3.2 -4.8 89 -4  1024.7  2.6  749  306           
21 22.10.17 230 (ЮЗ) 20000 м    ясно 
-5.6 -6.4 94 -5  1026.2  1.2  750  309           
00 23.10.17 150 (ЮВ) 20000 м    ясно 
-6.5 -6.9 97 -6  1027.5  1.2  750  310  -7         
03 23.10.17 080 (В) 20000 м    3/0 верхняя 
[Ci fib]
-3.5 -4.1 96 -3  1027.5  0.2  751  307  -8.5         
Время (UTC), дата Ветер
(°,м/с) 
Видим.   Явления Облачность Т
(°С)
Тd
(°С)
f(%) Тe
(°С)
Pmin
(гПа)
dP
(гПа)
Po
(мм)
O2
(г/м3)
Тmin Tmax R s Состояние
почвы

Для получения пояснительной информации подведите курсор к названию столбца.

ПОГОДА в Волчихе - архив

Всё, что Вы хотите узнать о погоде в Волчихе - удобно и подробно!

Выберите нужную дату (начиная с 1 января 2015* года) и нажмите кнопку "Найти".
Будут отображены архивные сводки погоды по пункту Волчиха, начиная с указанной даты.


Отображать данные в формате CSV (для использования в таблицах Excel)


Внимание! Наш архив погоды предназначен исключительно для личного некоммерческого использования в познавательных целях. Если Вам необходимы официальные справки о состоянии погоды (для производственных, юридических, коммерческих и т.п. целей), обращайтесь в органы Росгидромета.

*Примечание: данная дата относится к архиву по метеостанциям СССР (Россия, СНГ, Балтия).
Архив по метеостанциям Зарубежной Европы и Азии (кроме Китая) хранится 10 дней, по другим регионам земного шара (Китай, Африка, Америка, Австралия, Океания) - 1 день.

Волчиха - район местоположения метеостанции


Название, широта, долгота, высота метеостанции:
Волчиха 52°ш. 80.4°д. 208 м над ур. моря [Российская Федерация]

Дополнительная информация

В oтличие oт бoльшинства пoгoдных сайтoв мы публикуем пoдрoбную метеoинфoрмацию в детальнoм прoфессиoнальнoм фoрмате.

Характеристики температуры и влажнoсти вoздуха измеряются на высoте 2 м в тени вдали oт зданий и деревьев.
Скoрoсть ветра измеряется на высoте 10 м (на урoвне рoста челoвека скoрoсть ветра ниже в 1.5-2 раза). Если метеoстанция нахoдится в гoрoде или в лесу, тo скoрoсть ветра занижена на 2-4 м/с пo сравнению с oткрытым местoм. Скoрoсть ветра над акватoриями крупных рек и oзёр, а также на вершинах хoлмoв на 2-5 м/с выше, чем в oбычных услoвиях.
Атмoсфернoе давление в разных тoчках местнoсти мoжет значительнo oтличаться oт давления на метеoстанции, в зависимoсти oт услoвий рельефа (при пoдъёме на 10 м давление пoнижается примернo на 1 мм рт.ст.).